sat.trackr.live / text

‹ back to catalog

STARLINK-5819

NORAD 55780 · 2023-028AR

PAYLOAD ACTIVE UNKNOWN

§ Identity

Operator
Country
US
Launch date
2023-03-03
Launch site
AFWTR
Launch vehicle
Mass (kg)
RCS (m²)

Purposes: comms

External: N2YO · Heavens-Above · Gunter

§ Orbital elements

Epoch: 2026-05-25T02:31:39.443232Z

Period
96.11 min
Inclination
69.9998°
Eccentricity
0.0002872
Mean motion
14.98332465 rev/d
Perigee alt
570.1 km
Apogee alt
574.0 km
Semi-major
6,950.2 km
B*
2.3208e-5
RAAN
31.6186°
Arg perigee
270.0476°
Mean anomaly
90.0354°
Rev number
17,798

§ Raw data

STARLINK-58191 55780U 23028AR  26145.10531763  .00000184  00000+0  23208-4 0  99952 55780  69.9998  31.6186 0002872 270.0476  90.0354 14.98332465177985

JSON: /api/v1/satellites/55780 · /tle

For live sub-satellite position, see the globe view (requires WebGL).

§ Visibility from observer

Set your observer location to see the next 7 days of passes ≥ 10°. The values pass through the URL so the page stays shareable.

No JS? Fill the form by hand. The geolocation button needs JavaScript.